Tracking 32422 objects as of 8-Dec-2025
HD Live streaming from Space Station
objects crossing your sky now

STARLINK-5283

Track STARLINK-5283 now!
10-day predictions
STARLINK-5283 is classified as:


NORAD ID: 55396
Int'l Code: 2023-014F
Perigee: 577.2 km
Apogee: 581.2 km
Inclination: 70.0 °
Period: 96.1 minutes
Semi major axis: 6950 km
RCS: Unknown
Launch date: January 31, 2023
Source: United States (US)
Launch site: AIR FORCE WESTERN TEST RANGE (AFWTR)
Your satellite tracking list
Your tracking list is empty




NASA's NSSDC Master Catalog

Two Line Element Set (TLE):
1 55396U 23014F   25340.99211561  .00001723  00000-0  15217-3 0  9998
2 55396  69.9988 298.0408 0002885 272.7423  87.3406 14.98332829158179
Source of the keplerian elements: AFSPC